[[{"header":{"parameterUnit":"m.s-1","parameterCategory":1,"la1":30.2991,"la2":30.254,"lo1":-89.0895,"lo2":-89.0444,"dy":0.0017,"dx":0.0017,"nx":28,"ny":28,"refTime":"2025-05-25T09:00:00:Z","depth":0,"parameterNumber":2,"parameterNumberName":"U-component_of_WINDS"},"data":[0,0,0,0,0,0,0,0,0,0,0,0,0,0,0,0,0,0,0,0,0,0,0,0,0,0,0,0,0,0,0,0,0,0,0,0,0,0,0,0,0,0,0,0,0,0,0,0,0,0,0,0,0,0,0,0,0,0,0.1713,0.1714,0,0.1779,0.1779,0.178,0.1794,0.1793,0.1793,0.1792,0.186,0.1862,0.1864,0,0,0,0,0,0,0,0,0,0,0,0,0,0.16,0.1602,0.1713,0.1714,0.1715,0.1778,0.1779,0.178,0.1794,0.1793,0.1793,0.1792,0.1859,0.1861,0.1864,0,0,0,0,0,0,0,0,0,0,0,0,0,0.1655,0.1602,0.1713,0.1729,0.1731,0.1778,0.1779,0.178,0.1794,0.1793,0.1792,0.1792,0.1858,0.1861,0.1865,0.19,0,0,0.1875,0.1876,0,0,0,0,0,0,0,0,0.1652,0.166,0.1726,0.1728,0.1731,0.1777,0.1764,0.1821,0.1794,0.177,0.1792,0.1791,0.1833,0.1838,0.1852,0.1903,0.1906,0.1875,0.1877,0.1879,0.188,0,0,0,0,0,0,0,0.1648,0.1657,0.1739,0.1727,0.173,0.1733,0.174,0.1775,0.1805,0.1772,0.1773,0.1781,0.1834,0.1849,0.1854,0.1907,0.1875,0.1878,0.188,0.1881,0.1989,0.1989,0,0,0,0,0,0,0.1642,0.1654,0.1737,0.1741,0.1689,0.1736,0.1744,0.1763,0.1804,0.181,0.1781,0.1781,0.1843,0.185,0.1856,0.1899,0.1879,0.1882,0.1884,0.1988,0.1989,0.199,0,0,0,0,0,0,0.1639,0.1649,0.1734,0.1698,0.1709,0.1738,0.176,0.1765,0.178,0.1811,0.1817,0.1791,0.1843,0.1851,0.1889,0.1902,0.1883,0.1886,0.1987,0.1988,0.1989,0.1986,0,0,0,0,0,0,0.1636,0.1648,0.1662,0.1698,0.1711,0.1766,0.1761,0.1767,0.1785,0.1786,0.1822,0.1827,0.1843,0.1883,0.1892,0.1906,0.1889,0.1986,0.1987,0.1989,0.1985,0.1987,0.1989,0,0,0,0,0,0.1632,0.1659,0.1663,0.1673,0.1729,0.1767,0.1774,0.1792,0.1786,0.18,0.1821,0.1826,0.1899,0.1887,0.1897,0.1912,0.1985,0.1987,0.1989,0.1985,0.1987,0.1989,0,0,0,0,0,0,0.1625,0.1664,0.1669,0.1709,0.1734,0.1769,0.1788,0.1794,0.1822,0.1821,0.1842,0.185,0.1885,0.1903,0.1889,0.1948,0.1942,0.1946,0.1935,0.1938,0.194,0.1935,0.1892,0,0,0,0,0,0.1628,0.1656,0.1689,0.1721,0.1733,0.1758,0.1775,0.1786,0.1814,0.1825,0.1848,0.1874,0.1903,0.1921,0.195,0.1988,0.1995,0.2003,0.2005,0.2006,0.2009,0.2029,0.2033,0.1996,0.1996,0.1996,0,0,0.1635,0.166,0.1676,0.172,0.1741,0.1768,0.1767,0.1797,0.1817,0.1829,0.1865,0.1883,0.1914,0.1951,0.1969,0.1967,0.2021,0.2009,0.2009,0.2012,0.2032,0.2035,0.2038,0.1997,0.1997,0.1997,0,0,0.1662,0.1684,0.1712,0.1733,0.1764,0.178,0.1787,0.1821,0.1832,0.1869,0.1878,0.1902,0.1952,0.1973,0.199,0.2022,0.2028,0.2031,0.204,0.2059,0.2062,0.2065,0.2075,0.2079,0.2034,0.2034,0.2034,0,0.1666,0.1708,0.1726,0.1755,0.1773,0.1784,0.1812,0.1832,0.1871,0.1883,0.188,0.1941,0.1963,0.2004,0.2012,0.2026,0.2033,0.2027,0.206,0.2063,0.2066,0.2076,0.208,0.2034,0.2034,0.2034,0.2034,0,0.1712,0.1741,0.176,0.1796,0.1817,0.1845,0.1866,0.1885,0.1894,0.191,0.1946,0.1972,0.2005,0.2016,0.2025,0.2058,0.2056,0.2056,0.2051,0.2069,0.2079,0.2083,0.2034,0.2034,0.2034,0.2034,0,0,0.1737,0.1782,0.1788,0.1804,0.1839,0.1862,0.189,0.1922,0.1937,0.1963,0.1987,0.2027,0.2027,0.2046,0.2058,0.2075,0.2097,0.2073,0.2074,0.2076,0.2134,0.2133,0.2138,0.2101,0.2102,0.2103,0.2131,0,0.1767,0.1818,0.1834,0.1876,0.1902,0.1912,0.1937,0.196,0.1976,0.2,0.2017,0.2045,0.2043,0.2055,0.2072,0.2091,0.2109,0.2089,0.2123,0.2124,0.2115,0.2143,0.2143,0.2169,0.2135,0.2136,0.2137,0,0.1809,0.1835,0.188,0.191,0.1921,0.1943,0.1972,0.1996,0.2022,0.2032,0.2052,0.2062,0.2091,0.2084,0.2124,0.2109,0.2124,0.2135,0.2137,0.214,0.2131,0.2147,0.2177,0.2181,0.2143,0.2143,0.2142,0,0.1822,0.1868,0.19,0.1914,0.195,0.1965,0.198,0.2006,0.2023,0.2049,0.206,0.2089,0.2105,0.2127,0.2143,0.2137,0.2181,0.2176,0.219,0.219,0.2199,0.2198,0.2232,0.2209,0.2209,0.2209,0.2209,0,0.1854,0.188,0.1906,0.1926,0.1956,0.1973,0.2002,0.2018,0.2041,0.2063,0.2074,0.2095,0.2116,0.214,0.2153,0.2184,0.2191,0.2199,0.2202,0.2198,0.2197,0.2208,0.2206,0.221,0.221,0.221,0.221,0,0.1873,0.1892,0.1927,0.1958,0.1966,0.1986,0.2012,0.2032,0.2047,0.2075,0.2083,0.2107,0.2135,0.2154,0.219,0.2199,0.2232,0.2235,0.2223,0.2224,0.2237,0.2235,0.2279,0.2285,0.2258,0.2259,0.2259,0,0.1892,0.1912,0.1945,0.196,0.1976,0.2001,0.2019,0.2036,0.2054,0.2084,0.2099,0.2128,0.2152,0.2197,0.2217,0.2244,0.2248,0.2261,0.2252,0.2247,0.2247,0.2246,0.2247,0.2263,0.2263,0.2263,0.2263,0,0.1923,0.193,0.1955,0.1983,0.2003,0.2026,0.2048,0.206,0.2081,0.2101,0.2129,0.2148,0.2184,0.2212,0.2241,0.2257,0.2263,0.2266,0.227,0.2266,0.2258,0.2261,0.2226,0.2265,0.2264,0.2264,0.2264,0.2264,0.1942,0.196,0.1985,0.2012,0.203,0.2051,0.207,0.2087,0.2111,0.2142,0.215,0.218,0.2204,0.2244,0.226,0.2283,0.2281,0.2289,0.229,0.2292,0.2291,0.2254,0.2288,0.2288,0.2288,0.2288,0.2288,0,0.1973,0.1989,0.2013,0.2044,0.2065,0.2068,0.2093,0.211,0.2136,0.2158,0.2181,0.2213,0.224,0.2262,0.2289,0.2303,0.2307,0.231,0.2309,0.2312,0.2291,0.2284,0.2306,0.2306,0.2306,0.2306,0.2306,0.2306,0.1991,0.2022,0.2032,0.2071,0.2087,0.2116,0.213,0.2148,0.2166,0.2201,0.2223,0.2237,0.2259,0.2288,0.2312,0.2318,0.2327,0.233,0.2336,0.2316,0.2314,0.2312,0.2305,0.2332,0.2332,0.2355,0.2355,0.2355]},{"header":{"parameterUnit":"m.s-1","parameterCategory":1,"la1":30.2991,"la2":30.254,"lo1":-89.0895,"lo2":-89.0444,"dy":0.0017,"dx":0.0017,"nx":28,"ny":28,"refTime":"2025-05-25T09:00:00:Z","depth":0,"parameterNumber":3,"parameterNumberName":"V-component_of_WINDS"},"data":[0,0,0,0,0,0,0,0,0,0,0,0,0,0,0,0,0,0,0,0,0,0,0,0,0,0,0,0,0,0,0,0,0,0,0,0,0,0,0,0,0,0,0,0,0,0,0,0,0,0,0,0,0,0,0,0,0,0,5.7716,5.7716,0,5.7734,5.7734,5.7734,5.7641,5.7638,5.7636,5.7633,5.7649,5.7651,5.7654,0,0,0,0,0,0,0,0,0,0,0,0,0,5.7598,5.76,5.7716,5.7716,5.7716,5.7734,5.7734,5.7734,5.7642,5.7638,5.7635,5.7632,5.7648,5.7651,5.7655,0,0,0,0,0,0,0,0,0,0,0,0,0,5.7636,5.7601,5.7716,5.7672,5.7668,5.7734,5.7734,5.7734,5.7642,5.7638,5.7634,5.7631,5.7647,5.7651,5.7655,5.7762,0,0,5.7668,5.767,0,0,0,0,0,0,0,0,5.7634,5.764,5.7678,5.7675,5.7671,5.7681,5.7698,5.7743,5.7643,5.7652,5.7633,5.7629,5.7663,5.7665,5.7677,5.7763,5.7763,5.7669,5.7671,5.7673,5.7674,0,0,0,0,0,0,0,5.7631,5.7639,5.7723,5.7679,5.7675,5.7651,5.7652,5.7706,5.7679,5.7651,5.7644,5.7648,5.766,5.7673,5.7677,5.7763,5.7669,5.7672,5.7675,5.7677,5.7936,5.7941,0,0,0,0,0,0,5.7635,5.7637,5.7722,5.7723,5.7642,5.7656,5.7657,5.7682,5.7679,5.7674,5.7651,5.7644,5.7668,5.7672,5.7677,5.7801,5.7673,5.7677,5.768,5.7932,5.7937,5.7942,0,0,0,0,0,0,5.7633,5.7643,5.7721,5.7678,5.7687,5.7662,5.7691,5.7684,5.7698,5.7679,5.7673,5.767,5.7665,5.7671,5.7742,5.7801,5.7679,5.7683,5.7927,5.7934,5.794,5.8051,0,0,0,0,0,0,5.763,5.7643,5.7684,5.768,5.7689,5.7787,5.7695,5.7688,5.7706,5.7696,5.7695,5.7691,5.7662,5.7736,5.7746,5.7804,5.7687,5.7922,5.793,5.7938,5.8042,5.8061,5.8077,0,0,0,0,0,5.7626,5.7714,5.7687,5.7698,5.774,5.779,5.7795,5.7761,5.7711,5.7752,5.7739,5.7691,5.7793,5.7744,5.7754,5.7815,5.7918,5.7928,5.7937,5.8034,5.8057,5.8076,0,0,0,0,0,0,5.7725,5.7713,5.7682,5.7772,5.7783,5.7775,5.7825,5.7786,5.7811,5.78,5.7756,5.7756,5.7834,5.7832,5.7777,5.7918,5.7846,5.7859,5.7917,5.7938,5.7955,5.7954,5.769,0,0,0,0,0,5.7757,5.78,5.7787,5.7868,5.7875,5.7849,5.787,5.7843,5.7851,5.7855,5.7848,5.7858,5.7891,5.7915,5.7945,5.8042,5.804,5.8089,5.8106,5.812,5.8131,5.8181,5.8203,5.7974,5.7974,5.7973,0,0,5.7825,5.7823,5.7853,5.7888,5.7893,5.7937,5.7854,5.7904,5.7936,5.7862,5.7929,5.7924,5.7932,5.8016,5.8052,5.8016,5.8194,5.8132,5.8144,5.8147,5.8193,5.8215,5.8234,5.798,5.7979,5.7978,0,0,5.7969,5.7974,5.8041,5.8048,5.8057,5.804,5.8056,5.8054,5.8048,5.8114,5.806,5.8096,5.8156,5.8164,5.8175,5.8324,5.828,5.8335,5.8424,5.8474,5.8492,5.8508,5.856,5.8579,5.8346,5.8346,5.8346,0,5.8052,5.8117,5.808,5.8134,5.8151,5.8088,5.8155,5.8163,5.8182,5.8194,5.8153,5.8227,5.8227,5.8312,5.8348,5.836,5.8377,5.8334,5.8493,5.8508,5.8522,5.8571,5.8591,5.8353,5.8352,5.8351,5.8351,0,5.8217,5.8263,5.8316,5.8337,5.8359,5.842,5.8391,5.8418,5.8389,5.8376,5.8443,5.8442,5.8471,5.8489,5.8461,5.857,5.8547,5.85,5.8427,5.8551,5.8597,5.8615,5.8362,5.836,5.8358,5.8356,0,0,5.8424,5.8424,5.8444,5.8452,5.8458,5.8493,5.855,5.8579,5.8603,5.8617,5.8664,5.8716,5.8673,5.8686,5.8658,5.8702,5.8819,5.865,5.8649,5.868,5.8938,5.8972,5.8995,5.879,5.8794,5.8796,5.8937,0,5.8566,5.8664,5.8633,5.8732,5.8774,5.8715,5.8764,5.8773,5.8762,5.8795,5.8782,5.8819,5.876,5.8768,5.8808,5.8796,5.887,5.8785,5.8832,5.8834,5.8831,5.9019,5.9055,5.9188,5.8955,5.8958,5.896,0,5.8744,5.8767,5.8871,5.8869,5.8885,5.8931,5.8955,5.8987,5.8995,5.8984,5.9,5.8962,5.9017,5.8945,5.902,5.8963,5.898,5.8977,5.8982,5.8984,5.8904,5.9025,5.923,5.9249,5.8987,5.8985,5.8983,0,5.8884,5.8941,5.901,5.9019,5.9019,5.9052,5.9054,5.9058,5.9077,5.9098,5.911,5.9137,5.9151,5.9172,5.9143,5.9093,5.9222,5.9147,5.9213,5.9214,5.9242,5.924,5.9451,5.9255,5.9254,5.9254,5.9253,0,5.9044,5.911,5.9073,5.9116,5.9187,5.915,5.9221,5.9216,5.922,5.926,5.921,5.9248,5.9208,5.9242,5.9219,5.9284,5.9291,5.9283,5.9276,5.9287,5.9288,5.9297,5.9287,5.9259,5.9258,5.9257,5.9256,0,5.9212,5.919,5.9262,5.9257,5.9257,5.931,5.9304,5.9343,5.9329,5.9379,5.9389,5.9366,5.9404,5.9377,5.9414,5.9399,5.9484,5.9465,5.9482,5.9476,5.9544,5.9537,5.9767,5.9795,5.9581,5.9583,5.9585,0,5.9316,5.9366,5.9366,5.9389,5.9394,5.9433,5.9452,5.9418,5.944,5.9453,5.949,5.9524,5.9548,5.9611,5.9597,5.9626,5.9606,5.9684,5.961,5.9619,5.9606,5.9603,5.9608,5.9699,5.9702,5.9704,5.9705,0,5.9502,5.9489,5.952,5.9548,5.9573,5.9593,5.9608,5.963,5.9594,5.9622,5.966,5.968,5.9718,5.9752,5.9775,5.9775,5.9735,5.9729,5.9746,5.9757,5.9765,5.9761,5.9522,5.9724,5.9722,5.9721,5.972,5.9719,5.9641,5.9682,5.9688,5.9724,5.9733,5.9748,5.9784,5.9775,5.9806,5.9835,5.9813,5.9859,5.9864,5.9891,5.9897,5.9931,5.9899,5.9923,5.9929,5.9936,5.9945,5.976,5.9936,5.9935,5.9934,5.9934,5.9934,0,5.9824,5.9825,5.9859,5.9883,5.9911,5.9871,5.9886,5.9912,5.9953,5.9963,5.9989,6.0032,6.0065,6.0054,6.0083,6.0112,6.0094,6.0121,6.0118,6.0119,5.9972,5.9955,6.0135,6.0135,6.0135,6.0135,6.0135,6.0135,5.9922,5.9989,5.9977,6.0047,6.0047,6.0092,6.0104,6.0118,6.0126,6.0177,6.0204,6.0197,6.0198,6.0227,6.0254,6.025,6.0263,6.0296,6.0285,6.0149,6.0129,6.011,6.0093,6.03,6.03,6.0428,6.043,6.0431]}]]